www.pogodaiklimat.ru

Погода и климат >> Архив погоды >> Россия >> Чукотка >> Певек


АРХИВ ПОГОДЫ в Певеке

Время (UTC), дата Ветер
(напр.,м/с)
 
Видим.   Явления Облачность Т
(С)
Тd
(С)
f
(%)
Тe
(С)
Тes
(С)
Комфортность P
(гПа)
Po
(гПа)
Тmin
(С)
Tmax
(С)
R
(мм)
R24
(мм)
S
(см)
03 18.08 Ю 9-12
{15}
50 км 4/0
[Ac trans Ci sp]
+14.4 +5.9 57 +12 +13 тепло 1031.8 1031.1
06 18.08 ЮВ 12-16
{16}
50 км 6/0
[Ac trans Ci fib]
+14.2 +6.5 60 +11 +11 тепло 1030.4 1029.7
09 18.08 ЮВ 12-19
{21}
50 км 8/1 600 м
[Cu hum Ac trans Ci fib]
+13.9 +6.9 63 +11 +11 тепло 1029.5 1028.8 +15.1
12 18.08 ЮВ 17-22
{22}
20 км 8/1 600 м
[Cu hum Ac trans]
+12.1 +7.2 72 +8 +8 тепло 1027.7 1027.0
15 18.08 ЮВ 19-24
{25}
20 км 8/1 600 м
[Cu hum Ac trans Ci fib]
+11.1 +6.9 75 +6 +6 по сезону 1025.7 1025.0
18 18.08 ЮВ 12-15
{24}
50 км 10/0
[]
+11.9 +7.5 74 +8 +8 тепло 1026.5 1025.8
21 18.08 В 3
{15}
50 км 10/1 600 м
[Sc Ac und]
+12.1 +8.0 76 +11 +11 тепло 1026.5 1025.8 +11.1
00 19.08 С 2
{8}
50 км 8/0
[Ac trans Ci]
+14.2 +7.9 66 +14 +19 тепло 1026.5 1025.8
03 19.08 С 2
{7}
50 км 9/0
[Ac trans Ci fib]
+13.5 +8.3 71 +13 +16 тепло 1026.2 1025.5
06 19.08 СВ 3
{5}
20 км 6/0
[Ac trans Ci fib]
+11.1 +8.1 82 +9 +10 тепло 1026.5 1025.8
09 19.08 СВ 3
{5}
20 км 3/0
[Ac trans]
+11.4 +8.2 81 +10 +10 тепло 1026.5 1025.8 +15.4
12 19.08 СВ 2
{5}
20 км 3/0
[Ac trans]
+11.1 +7.6 79 +10 +10 тепло 1026.8 1026.1
15 19.08 штиль 0
{3}
20 км ясно +8.4 +7.3 93 +7 +7 по сезону 1026.7 1026.0
18 19.08 СВ 1
{3}
20 км 3/0
[Ci fib]
+8.8 +7.0 88 +8 +8 тепло 1027.0 1026.3
21 19.08 штиль 0
{2}
50 км 1/0
[Ci sp]
+10.9 +8.1 83 +10 +15 тепло 1026.8 1026.1 +7.9
00 20.08 З 1
{3}
50 км ясно +11.5 +8.2 80 +11 +18 тепло 1026.2 1025.5
03 20.08 СВ 3
{6}
50 км 8/0
[Ac trans Cc]
+11.6 +8.5 81 +10 +13 тепло 1025.2 1024.5
06 20.08 СВ 3
{4}
50 км 3/0
[Ci sp]
+12.6 +7.7 72 +11 +12 тепло 1024.1 1023.4
09 20.08 ЮЗ 2
{6}
50 км 1/0
[Ci sp]
+14.5 +7.8 64 +14 +14 тепло 1023.1 1022.4 +14.5
12 20.08 В 4-10
{12}
20 км 3/0
[Ci sp]
+14.8 +7.3 61 +14 +14 тепло 1022.2 1021.5
15 20.08 ЮВ 9-15
{18}
20 км 3/0
[Ci sp]
+14.9 +5.7 54 +13 +13 тепло 1020.7 1020.0
18 20.08 СЗ 2
{14}
50 км 8/0
[Ac trans Ci sp]
+12.5 +6.5 67 +12 +12 тепло 1020.0 1019.3
21 20.08 СВ 1
{4}
50 км 8/0 300 м
[Ac trans Ci sp]
+13.6 +7.2 65 +14 +16 тепло 1019.1 1018.4 +11.9
00 21.08 С 1
{3}
50 км 6/0
[Ci fib]
+14.0 +7.7 66 +14 +21 тепло 1018.4 1017.7
03 21.08 СВ 4
{5}
50 км 4/0
[Ci fib]
+12.6 +8.2 75 +11 +14 тепло 1017.3 1016.6
06 21.08 С 1
{5}
50 км 4/0
[Ci fib]
+13.2 +8.5 73 +13 +15 тепло 1016.7 1016.0
09 21.08 СЗ 2
{4}
4000 м 6/1 300 м
[St Ci sp]
+9.0 +8.0 93 +7 +7 по сезону 1016.7 1016.0 +15.2
12 21.08 С 1
{4}
2000 м дымка 10/3 300 м
[St Ac und]
+6.3 +5.7 96 +5 +5 по сезону 1017.3 1016.6
15 21.08 СЗ 3
{4}
500 м туман ?/? +4.8 +4.5 98 +1 +1 прохладно 1017.4 1016.7
18 21.08 СЗ 3
{5}
500 м туман ?/? +4.1 +4.0 99 0 0 прохладно 1018.5 1017.8
21 21.08 СЗ 4
{7}
4000 м дымка {туман} 10/6 200 м
[St Ac und]
+4.0 +3.6 97 -1 -1 холодно 1019.6 1018.9 +3.3
00 22.08 С 7
{10}
20 км {морось, туман} 9/9 200 м
[St]
+5.1 +3.7 91 -1 -0 очень
холодно
1020.7 1020.0
03 22.08 С 5
{11}
20 км 9/9 300 м
[Sc]
+5.8 +4.0 88 +1 +2 холодно 1022.0 1021.3
06 22.08 СВ 2
{10}
20 км 9/9 300 м
[Sc]
+5.8 +4.1 89 +3 +3 прохладно 1022.9 1022.2
09 22.08 СВ 4
{8}
20 км 9/9 300 м
[Sc]
+5.7 +4.2 90 +2 +2 прохладно 1023.7 1023.0 +6.2
12 22.08 СВ 3
{7}
20 км 9/9 300 м
[Sc]
+6.2 +4.6 89 +3 +3 прохладно 1024.1 1023.4
15 22.08 С 1
{5}
20 км 9/9 300 м
[Sc]
+5.0 +3.7 91 +4 +4 по сезону 1024.6 1023.9
18 22.08 С 1
{3}
20 км 8/8 300 м
[Sc]
+5.2 +3.3 88 +4 +4 по сезону 1024.8 1024.1
21 22.08 С 1
{2}
20 км 9/3 600 м
[Sc Ac trans]
+5.8 +3.2 83 +5 +6 по сезону 1024.9 1024.2 +4.9
00 23.08 СВ 1
{3}
20 км 9/0
[Ac trans]
+6.8 +3.2 78 +6 +9 по сезону 1024.6 1023.9
03 23.08 СВ 2
{3}
50 км 8/0
[Ac trans Ci fib]
+7.8 +3.5 74 +6 +9 по сезону 1023.7 1023.0
06 23.08 СВ 3
{6}
20 км 3/0
[Ac trans Ci fib]
+7.8 +3.1 72 +5 +6 по сезону 1022.4 1021.7
09 23.08 СВ 2
{5}
50 км 1/0
[Ci fib]
+7.1 +3.3 77 +5 +5 по сезону 1021.7 1021.0 +8.7
12 23.08 СВ 4
{4}
20 км 3/0
[Ci sp]
+7.1 +3.7 79 +4 +4 по сезону 1020.3 1019.6
15 23.08 В 1
{4}
20 км ясно +7.1 +4.4 83 +6 +6 по сезону 1019.0 1018.3
18 23.08 Ю 1
{2}
20 км 1/0
[Ci sp]
+8.0 +5.6 85 +7 +7 по сезону 1017.5 1016.8
21 23.08 ЮВ 1
{2}
50 км 8/0
[Ac trans Ci fib]
+11.1 +6.2 72 +11 +13 тепло 1015.8 1015.1 +6.8
00 24.08 СЗ 2
{6}
50 км 4/0
[Ac trans Ci fib]
+14.2 +5.3 55 +14 +18 тепло 1014.4 1013.7
03 24.08 СВ 2
{5}
50 км 6/1 600 м
[Cu hum Ac trans Ci sp]
+12.4 +5.8 64 +12 +14 тепло 1012.8 1012.2
06 24.08 СВ 2
{4}
50 км 3/0
[Ac trans Ci fib]
+12.6 +5.5 62 +12 +13 тепло 1011.6 1011.0
09 24.08 СВ 2
{3}
20 км 8/1 600 м
[Sc Ac trans]
+12.7 +4.9 59 +12 +12 тепло 1010.5 1009.9 +14.2
12 24.08 ЮЗ 1
{2}
20 км 3/0
[Ci fib]
+9.2 +6.7 84 +9 +9 по сезону 1009.6 1008.9
15 24.08 СВ 1
{2}
20 км 1/0
[Ci fib]
+8.3 +5.9 85 +8 +8 по сезону 1009.0 1008.3
18 24.08 штиль 0
{3}
20 км 3/0
[Ac trans]
+8.2 +5.4 82 +7 +8 по сезону 1008.3 1007.6
21 24.08 ЮЗ 1
{3}
20 км 10/0
[]
+11.0 +7.3 78 +11 +12 тепло 1008.2 1007.5 +7.9
00 25.08 СВ 1
{2}
20 км 1/0
[Ci fib]
+13.3 +5.2 58 +14 +20 тепло 1007.5 1006.9

 

Местоположение метеостанции Певек (Чукотка, Россия): широта 69.70 долгота 170.20 высота над уровнем моря 5 м.

В архиве по умолчанию представлена погода в Певеке за последнюю неделю. Архивные данные за месяц целиком и за предыдущие месяцы, начиная с января 2011 года, Вы можете получить, выбрав интересующий диапазон дат из раскрывающегося списка и нажав кнопку "Ввод!".


*Определитесь, кто Вы:
робот инопланетянин человек

Внимание! Время в таблицах - всемирное. Для получения местного времени необходимо прибавить поправку, которая равна 12 ч.

Смотрите также архив погоды в соседних городах и на ближайших метеорологических станциях:

Погода на 21 км (Чукотка, Россия) (26 км)
Погода в Валькаркае (Чукотка, Россия) (50 км)
Погода на Айон Острове (Чукотка, Россия) (92 км)
Погода в Чауне (Чукотка, Россия) (93 км)
Погода в Комсомольской (Чукотка, Россия) (120 км)
Погода в Раучуе (Чукотка, Россия) (145 км)
Погода в Паляваам-Глубокой (Чукотка, Россия) (165 км)
Погода в Майской (Чукотка, Россия) (181 км)
Погода на Мысе Биллингс (Чукотка, Россия) (212 км)
Погода в Билибино (Чукотка, Россия) (238 км)

Пояснения к столбцам:

Ветер - указаны скорость ветра в м/с - средняя за 10 мин, порывы в срок и между сроками (в фигурных скобках) и направление, откуда дует ветер: С - северный, СВ - северо-восточный, В - восточный, ЮВ - юго-восточный, Ю - южный, ЮЗ - юго-западный, З - западный, СЗ - северо-западный.
Видимость - горизонтальная дальность видимости в метрах или километрах. При видимости от 1 до 10 км при отсутствии осадков обычно наблюдается дымка, при ухудшении видимости до 1 км и менее - туман. В сухую погоду видимость может ухудшаться дымом, пылью или мглою.
Явления - указаны атмосферные явления, наблюдавшиеся в срок или в последний час перед сроком; фигурными скобками обозначены явления, наблюдавшиеся между сроками (за 1-3 часа до срока); квадратными скобками обозначены град или гололедные отложения с указанием их диаметра в мм.
Облачность - указаны через наклонную черту общая и нижняя облачность в баллах и высота нижней границы облаков в метрах; квадратными скобками обозначены формы облаков: Ci - перистые, Cs - перисто-слоистые, Cc - перисто-кучевые, Ac - высококучевые, As - высокослоистые, Sc - слоисто-кучевые, Ns - слоисто-дождевые, Cu - кучевые, Cb - кучево-дождевые. Подробнее классификацию облаков см. в Атласе облаков (PDF).
T - Температура воздуха - температура, измеренная на высоте 2 м над землей.
Td - Температура точки росы - температура, при понижении до которой содержащийся в воздухе водяной пар достигнет насыщения.
f - Относительная влажность воздуха - влажноcть воздуха, измеренная на высоте 2 м над землей.
Te - Эффективная температура - температура, которую ощущает одетый по сезону человек в тени. Характеристика душности погоды. При расчете учитывается влияние влажности воздуха и скорости ветра на теплоощущения человека.
Tes - Эффективная температура на солнце - температура, которую ощущает человек, с поправкой на солнечный нагрев. Характеристика знойности погоды. Зависит от высоты солнца над горизонтом, облачности и скорости ветра. Ночью, в пасмурную погоду, а также при ветре 12 м/с и более поправка равна нулю.
P - Атмосферное давление - приведенное к уровню моря атмосферное давление.
Po - Атмосферное давление - измеренное на уровне метеостанции атмосферное давление.
Tmin - Минимальная температура - минимум температуры воздуха на высоте 2 м над землей.
Tmax - Максимальная температура - максимум температуры воздуха на высоте 2 м над землей.
R - Количество осадков - Количество выпавших осадков за период времени, мм. При наведении курсора мыши на число - период времени, за который выпало указанное количество осадков.
R24 - Количество осадков - Количество выпавших осадков за 24 часа, мм.
S - Снежный покров - Высота снежного покрова, см. При наведении курсора мыши на число - состояние снежного покрова и степень покрытия местности в баллах.